This demonstration page uses our WeatherBlox Daily Observations layout. Learn more.

Left ArrowRight Arrow

Hourly Observations for May 5, 2021

Temp ( °F °C ) Dew Point ( °F °C ) Humidity (%) Winds ( mph kmh ) Pressure ( in mb ) Visibility ( mi km ) Precip ( " mm )
12:19 am 00:19 Cloudy 57 13.9 52 11.1 83 83 NNW 5 7 29.83 1010 10 16 N/A
12:53 am 00:53 Cloudy 56 13.3 52 11.1 87 87 NNW 10 17 29.81 1010 10 16 N/A
1:31 am 01:31 Cloudy 55 12.8 50 10 83 83 N 10 17 29.83 1010 10 16 N/A
1:53 am 01:53 Cloudy 55 12.8 49 9.4 80 80 N 12 19 29.82 1010 10 16 N/A
2:53 am 02:53 Cloudy with Light Rain 53 11.7 49 9.4 86 86 NNW 8 13 29.84 1010 10 16 0.00 0.00
3:29 am 03:29 Cloudy with Light Rain 52 11.1 49 9.4 89 89 NNW 8 13 29.86 1011 7 11 0.03 0.76
3:53 am 03:53 Cloudy with Light Rain 51 10.6 49 9.4 92 92 NW 5 7 29.86 1011 9 14 0.05 1.27
4:29 am 04:29 Cloudy with Light Rain 51 10.6 49 9.4 92 92 NNW 9 15 29.88 1012 5 8 0.01 0.25
4:38 am 04:38 Cloudy with Light Rain 51 10.6 49 9.4 92 92 NW 12 19 29.88 1012 5 8 0.01 0.25
4:53 am 04:53 Cloudy with Light Rain 50 10 48 8.9 93 93 NNW 9 15 29.88 1012 7 11 0.01 0.25
5:20 am 05:20 Cloudy 50 10 48 8.9 93 93 NW 10 17 29.89 1012 10 16 0.01 0.25
5:53 am 05:53 Cloudy 50 10 48 8.9 93 93 NW 9 15 29.88 1012 10 16 0.01 0.25
6:53 am 06:53 Cloudy 50 10 47 8.3 89 89 NW 8 13 29.91 1013 10 16 N/A
7:53 am 07:53 Cloudy 51 10.6 47 8.3 86 86 NNW 8 13 29.95 1014 10 16 N/A
8:53 am 08:53 Cloudy 51 10.6 47 8.3 86 86 NNW 7 11 29.97 1015 10 16 N/A
9:53 am 09:53 Cloudy 53 11.7 46 7.8 77 77 NNW 9 15 30.00 1016 10 16 N/A
10:00 am 10:00 Cloudy 53 11.7 46 7.8 77 77 NNW 9 15 30.01 1016 10 16 N/A
10:53 am 10:53 Cloudy 56 13.3 44 6.7 65 65 NNW 12 19 30.02 1017 10 16 N/A
11:53 am 11:53 Mostly Cloudy 59 15 44 6.7 58 58 NNW 9 15 30.03 1017 10 16 N/A
12:53 pm 12:53 Mostly Cloudy 59 15 41 5 51 51 WNW 15 24 30.04 1017 10 16 N/A
1:53 pm 13:53 Mostly Cloudy 60 15.6 41 5 50 50 WNW 15 24 30.04 1017 10 16 N/A
2:53 pm 14:53 Mostly Cloudy 61 16.1 39 3.9 44 44 WNW 13 20 30.06 1018 10 16 N/A
3:53 pm 15:53 Mostly Cloudy 59 15 37 2.8 44 44 N 13 20 30.06 1018 10 16 N/A
4:53 pm 16:53 Mostly Cloudy 60 15.6 38 3.3 44 44 NNW 12 19 30.07 1018 10 16 N/A
5:53 pm 17:53 Partly Cloudy 61 16.1 38 3.3 43 43 NW 14 22 30.08 1019 10 16 N/A
6:53 pm 18:53 Mostly Sunny 60 15.6 37 2.8 42 42 NNW 12 19 30.09 1019 10 16 N/A
7:53 pm 19:53 Sunny 58 14.4 34 1.1 41 41 NNW 8 13 30.11 1020 10 16 N/A
8:53 pm 20:53 Clear 50 10 44 6.7 80 80 NNW 3 6 30.13 1020 10 16 N/A
9:53 pm 21:53 Clear 47 8.3 42 5.6 83 83 N N/A 30.14 1021 10 16 N/A
10:53 pm 22:53 Clear 46 7.8 40 4.4 79 79 NNW 5 7 30.15 1021 10 16 N/A
11:53 pm 23:53 Clear 43 6.1 39 3.9 86 86 N N/A 30.15 1021 10 16 N/A

Powered by AerisWeather